Location: Frydek-Mistek
(49.6830°N, 18.3330°E)
Time: 15:35:15
(UTC+02:00)

Courier 1B Rocket - All Passes

Search period start: 21 October 2014 00:00
Search period end: 30 October 2014 23:00
Orbit: 921 x 1202 km, 28.3° (Epoch: 18 October)

Date Brightness Start Highest point End Pass type
(mag) Time Alt. Az. Time Alt. Az. Time Alt. Az.
21 Oct - 04:57:06 10° SSE 04:57:30 10° SSE 04:57:53 10° SSE visible
21 Oct - 06:46:18 10° SSW 06:49:36 13° S 06:52:51 10° SSE visible
22 Oct - 05:45:40 10° SSW 05:48:57 13° S 05:52:11 10° SSE visible
22 Oct - 07:38:36 10° SSW 07:41:03 12° S 07:43:29 10° S daylight
23 Oct - 04:45:31 10° S 04:48:17 12° S 04:51:03 10° SSE visible
23 Oct - 06:37:08 10° SSW 06:40:26 13° S 06:43:41 10° SSE visible
24 Oct - 03:46:25 10° S 03:47:38 10° SSE 03:48:52 10° SSE visible
24 Oct - 05:36:10 10° SSW 05:39:46 14° S 05:43:19 10° SSE visible
24 Oct - 07:30:59 10° SSW 07:31:51 10° SSW 07:32:43 10° S daylight
25 Oct - 04:35:37 10° SSW 04:39:05 14° S 04:42:32 10° SSE visible
25 Oct - 06:28:24 10° SSW 06:31:14 12° S 06:34:02 10° S visible
26 Oct - 02:35:33 10° SSW 02:38:25 12° S 02:41:17 10° SSE visible
26 Oct - 04:27:05 10° SSW 04:30:34 14° S 04:34:02 10° SSE visible
27 Oct - 01:36:37 10° S 01:37:47 10° SSE 01:38:56 10° SSE visible
27 Oct - 03:26:14 10° SSW 03:29:53 14° S 03:33:32 10° SSE visible
27 Oct - 05:20:37 10° SSW 05:22:00 11° SSW 05:23:23 10° S visible
28 Oct - 02:25:48 10° SSW 02:29:12 13° S 02:32:39 10° SSE visible
28 Oct - 04:18:27 10° SSW 04:21:21 12° S 04:24:16 10° SSE visible
29 Oct - 01:25:53 10° S 01:28:33 12° S 01:31:15 10° SSE visible
29 Oct - 03:17:16 10° SSW 03:20:41 13° S 03:24:08 10° SSE visible
30 Oct - 02:16:32 10° SSW 02:20:01 14° S 02:23:32 10° SSE visible
30 Oct - 04:10:52 10° SSW 04:12:08 10° SSW 04:13:24 10° S visible
